Regional Weather Roundup
Issued by NWS New Orleans/Baton Rouge, LA

Home | Current Version | Previous Version | Text Only | Print | Product List | Glossary On
Versions: 1 2 3 4 5 6 7 8 9 10 11 12 13 14 15 16 17 18 19 20 21 22 23 24 25 26 27 28 29 30 31 32 33 34 35 36 37 38 39 40 41 42 43 44 45 46 47 48 49 50
000
ASUS44 KLIX 281010
RWRLIX
NEW ORLEANS REGIONAL WEATHER ROUNDUP
NATIONAL WEATHER SERVICE NEW ORLEANS LA
500 AM CDT MON JUL 28 2014

NOTE: "FAIR" INDICATES FEW OR NO CLOUDS BELOW 12,000 FEET WITH NO
      SIGNIFICANT WEATHER AND/OR OBSTRUCTIONS TO VISIBILITY.
      SKY/WX - SKY CONDITION AND SIGNIFICANT WEATHER.
      TMP - AIR TEMPERATURE.     DP    - DEWPOINT TEMPERATURE.
      RH  - RELATIVE HUMIDITY.   PRES  - PRESSURE.
      HI  - HEAT INDEX.          WCI   - WIND CHILL INDEX.

*  THESE STATIONS ARE NOT NWS OR FAA STATIONS AND ARE NOT UNDER
   NWS QUALITY CONTROL.

LAZ038-040-048-061>063-065>067-069-281100-
SOUTHEAST LOUISIANA

CITY           SKY/WX    TMP DP  RH WIND       PRES   REMARKS
N.O. AUDUBON     N/A     81  76  85 MISG        N/A
N.O. INTL ARPT PTCLDY    79  76  90 W7        30.04R
N.O. LAKEFRONT CLEAR     83  77  82 W17       30.05R
N.O. DOWNTOWN*   N/A     81  73  78 SW5       30.05R
SLIDELL        CLEAR     81  75  82 CALM      30.04R
BATON ROUGE    CLEAR     77  75  93 W5        30.06R
BOOTHVILLE     PTCLDY    83  77  82 W9        30.05R
BELLE CHASSE   CLEAR     80  75  84 W6        30.04R
BOGALUSA*        N/A     79  75  86 NW6       30.05S
GALLIANO*      NOT AVBL
NEW ROADS*       N/A     76  74  95 CALM      30.05S
GONZALES*        N/A     78  78 100 CALM      30.05R
HAMMOND*       CLEAR     79  73  83 NW3       30.07R
HOUMA*         CLEAR     79  74  84 CALM      30.05R
PORT FOURCHON* SUNNY     84  77  79 W12       30.06S

$$

MSZ070-080>082-281100-
SOUTHERN MISSISSIPPI

CITY           SKY/WX    TMP DP  RH WIND       PRES   REMARKS
MCCOMB         CLEAR     77  74  90 W6        30.06R
GULFPORT       CLEAR     83  77  82 NW6       30.02R
BILOXI         CLEAR     81  78  89 VRB1      30.03R
PASCAGOULA     CLEAR     79  77  94 W5        30.03R

$$

COASTAL OBSERVATIONS
LAKE AND NEARSHORE STATIONS

STATION/POSITION TIME  TEMP    WIND        PRES    WAVE
                       AIR SEA DIR/SP/G            HT/PER
                 (UTC) (F)     (DEG/KT/KT) (MB)    (FT/S)
PASCAGOULA       1000   83     280/  7/ 12 1016.2
WAVELAND YACHT   1000   81     300/  6/  7 1016.3
GRAND ISLE       1000   83 86  250/  8/ 11 1018.0
SOUTHWEST PASS   1000   84 84  260/ 18/ 19 1017.9
NEW CANAL        1000   82 84  250/  6/  8 1017.8
SHELL BEACH      1000   80 82  250/  7/  8 1017.1

OFFSHORE STATIONS

STATION/POSITION TIME  TEMP    WIND        PRES    WAVE
                       AIR SEA DIR/SP/G            HT/PER
                 (UTC) (F)     (DEG/KT/KT) (MB)    (FT/S)
64 S DAUPHIN ISL 0910   85 85  260/ 16/ 19 1017.3

$$



USA.gov is the U.S. government's official web portal to all federal, state and local government web resources and services.